Location: Unspecified
(49.2023°N, 0.0000°E)
Time: 16:18:38
(UTC+00:00)

TOMS - Visible Passes

Search period start: 04 April 2026 00:00
Search period end: 14 April 2026 00:00
Orbit: 674 x 713 km, 98.5° (Epoch: 28 March)

Date Brightness Start Highest point End Pass type
(mag) Time Alt. Az. Time Alt. Az. Time Alt. Az.
4 Apr 9.9 02:04:36 10° ENE 02:06:13 12° NE 02:07:50 10° NNE visible
4 Apr 7.0 03:38:20 10° SSE 03:42:56 72° ENE 03:47:33 10° N visible
5 Apr 9.1 02:42:06 10° ESE 02:45:45 23° ENE 02:49:24 10° N visible
5 Apr 6.9 04:18:31 10° S 04:23:01 50° W 04:27:31 10° NNW visible
6 Apr 7.7 03:21:03 10° SE 03:25:30 49° ENE 03:29:58 10° N visible
7 Apr 9.6 02:25:28 10° E 02:28:27 17° ENE 02:31:27 10° NNE visible
7 Apr 6.7 04:00:52 10° S 04:05:28 73° WSW 04:10:07 10° NNW visible
8 Apr 8.4 03:03:56 10° SE 03:08:07 35° ENE 03:12:18 10° N visible
8 Apr 7.5 04:41:34 10° SSW 04:45:40 31° W 04:49:48 10° NNW visible
9 Apr 9.8 02:09:14 10° E 02:11:12 13° NE 02:13:10 10° NNE visible
9 Apr 6.9 03:43:22 10° SSE 03:47:58 78° ENE 03:52:36 10° NNW visible
10 Apr 9.0 02:46:59 10° ESE 02:50:45 25° ENE 02:54:31 10° N visible
10 Apr 7.0 04:23:38 10° S 04:28:04 45° W 04:32:31 10° NNW visible
11 Apr 7.5 03:26:02 10° SE 03:30:30 54° ENE 03:35:02 10° N visible
12 Apr 9.5 02:30:16 10° ESE 02:33:25 19° ENE 02:36:36 10° NNE visible
12 Apr 6.7 04:05:55 10° S 04:10:30 67° WSW 04:15:07 10° NNW visible
13 Apr 8.3 03:08:51 10° SE 03:13:05 38° ENE 03:17:21 10° N visible
